Wind_Speed
13 15 17 20 22 26 29 32 33 35 37 39 42 43 43 44 45 45 45 44 42 42 41 40 39 37 36 35 34 33 31 30 29 29 28 26 26 25
12 13 16 19 21 23 26 29 32 34 36 38 40 43 44 44 45 45 47 47 46 45 44 43 43 42 40 39 37 36 35 34 32 31 31 30 29 28
11 12 14 16 18 21 25 27 29 32 35 37 38 41 42 44 45 46 47 48 48 48 47 47 47 46 44 42 41 40 38 37 36 35 35 34 33 31
12 11 12 13 16 18 21 24 26 29 32 35 37 39 41 43 45 46 46 47 49 50 49 48 48 47 46 45 44 43 42 40 39 38 37 36 35 34
12 11 11 12 13 15 17 20 23 25 28 32 35 38 40 41 44 46 46 46 47 49 50 51 50 49 48 47 47 46 45 42 41 40 39 38 37 36
13 12 11 10 10 12 13 16 18 21 24 28 31 34 37 39 41 44 45 47 47 48 50 50 51 51 51 48 47 47 46 45 43 42 41 40 40 39
13 12 12 11 10 10 11 12 14 17 20 23 26 29 32 35 38 41 43 45 46 46 48 49 50 51 51 51 50 48 47 46 45 45 44 43 42 41
13 13 12 12 11 10 10 11 12 14 16 18 21 25 27 29 32 35 38 42 44 45 46 47 49 49 50 51 51 50 49 48 48 47 45 44 43 42
13 13 13 12 12 11 10 10 11 12 14 15 17 20 22 24 26 29 33 37 40 43 45 46 47 48 49 50 51 51 50 50 49 48 47 46 46 44
13 13 13 13 13 12 11 11 11 11 12 13 15 18 20 22 24 26 29 32 35 38 41 42 44 46 48 49 50 51 52 51 51 50 49 49 47 46
13 13 13 13 13 13 12 12 12 12 12 13 13 15 17 19 20 23 25 28 30 34 37 39 41 44 46 48 48 50 51 51 51 51 50 50 49 48
14 14 13 13 13 13 13 13 12 12 13 13 13 14 15 16 17 19 21 24 27 30 33 34 36 40 43 45 47 48 48 49 50 50 50 50 50 49
15 14 14 14 14 14 14 14 14 13 13 13 13 13 14 15 16 18 19 21 24 27 30 32 33 35 38 41 44 46 46 47 48 49 49 49 49 50
17 16 16 15 15 15 15 15 14 14 14 14 14 14 15 16 16 17 18 20 22 24 27 29 31 33 35 37 40 42 44 46 48 48 49 49 50 50
18 17 17 17 16 16 16 16 16 16 15 15 15 15 15 16 17 17 18 19 20 22 25 27 29 31 33 34 37 39 41 43 46 47 48 49 49 50
19 18 18 18 18 18 18 18 17 17 17 17 17 17 17 17 17 17 18 19 20 22 24 26 28 29 31 32 34 37 39 41 43 45 46 46 47 48
20 20 20 20 20 20 20 19 19 19 19 19 19 19 19 19 19 19 19 20 21 22 23 25 26 28 29 30 32 34 36 38 40 42 44 44 44 45
22 22 21 21 21 22 22 21 21 21 21 21 21 21 21 21 21 21 21 21 21 22 23 24 25 27 28 29 30 32 33 35 37 39 40 42 43 43
24 24 24 23 23 23 24 24 24 24 23 23 23 23 23 23 23 23 24 23 23 23 23 24 25 26 27 27 28 30 31 33 34 36 38 39 41 43
26 26 26 26 26 26 26 26 26 26 27 26 26 26 26 26 26 26 26 26 26 25 25 26 26 26 26 27 27 29 31 32 33 34 36 38 39 40
28 28 28 29 29 29 29 29 29 29 30 30 30 30 30 29 29 29 29 29 28 28 28 28 28 28 27 27 27 28 30 31 32 33 34 36 37 39
31 31 31 31 32 32 32 32 32 33 33 33 33 33 33 33 33 33 33 33 32 32 32 31 31 31 30 30 29 29 30 32 32 32 33 34 35 36
33 34 34 34 35 35 35 36 36 36 36 37 37 37 37 37 37 37 37 37 37 36 36 35 35 35 34 34 33 32 32 33 33 34 33 34 34 34
Wind_Direction
275 266 260 255 251 246 243 242 241 239 238 237 236 236 236 236 236 236 237 237 236 237 238 238 239 239 240 242 243 244 245 246 248 249 251 253 256 260
289 276 268 264 257 251 247 244 243 241 240 239 238 238 239 239 237 236 237 237 238 238 240 240 240 240 242 242 244 245 246 247 248 249 251 254 256 259
310 293 281 273 266 258 252 248 246 244 242 242 241 240 240 240 239 238 238 239 240 240 241 241 241 241 242 242 243 245 246 247 249 251 253 255 256 258
328 314 296 283 275 266 258 252 249 247 245 244 244 243 242 240 240 240 240 240 240 241 241 241 241 241 242 243 244 245 246 248 250 252 253 254 255 257
339 330 315 297 284 274 267 259 255 252 249 248 247 246 245 244 242 241 241 240 240 240 240 241 241 241 242 243 244 244 246 247 248 250 252 253 254 255
348 343 334 320 302 288 278 269 262 259 255 254 253 251 250 249 246 244 243 241 241 241 241 242 242 243 243 242 243 244 245 246 247 249 251 253 254 255
349 348 345 337 323 307 292 281 273 266 262 260 257 256 254 253 251 248 246 245 244 244 244 243 243 243 244 243 243 244 245 246 247 248 250 252 253 254
349 346 342 340 333 322 307 294 284 276 269 266 261 258 259 257 255 253 251 248 247 246 246 245 243 243 244 245 245 245 246 246 248 249 250 250 251 253
349 348 347 344 339 331 320 307 297 287 278 272 265 260 261 261 258 256 254 252 250 249 247 247 247 246 246 245 245 245 246 248 249 249 250 249 250 252
343 344 344 343 341 336 328 322 312 302 290 280 272 266 264 263 261 259 256 253 252 250 249 248 248 248 247 246 245 245 245 246 247 247 249 249 250 251
334 336 338 339 337 336 334 329 322 314 306 293 284 277 273 271 267 263 259 256 252 250 251 251 249 249 248 248 247 247 246 246 247 247 248 249 249 250
326 328 329 331 332 332 331 329 325 319 315 308 295 288 284 280 275 270 266 261 256 252 252 252 251 251 250 250 250 249 248 248 248 248 248 249 250 251
319 320 321 323 324 325 325 323 321 317 314 312 307 298 293 290 284 277 271 266 261 257 256 256 255 254 252 251 250 251 250 250 249 249 249 249 249 250
314 314 314 314 315 316 317 318 318 316 312 309 307 302 297 293 290 285 280 273 268 264 261 259 258 257 255 253 251 251 252 252 250 249 249 249 248 249
311 311 311 310 310 310 309 310 310 311 308 306 304 301 299 297 294 290 285 280 276 272 268 265 263 261 258 256 253 252 252 251 251 250 249 248 248 249
307 306 306 306 306 306 306 306 306 306 306 304 302 301 298 296 295 292 288 286 281 276 274 271 268 265 262 259 257 255 254 253 252 251 250 250 249 248
303 302 301 301 301 302 303 303 303 301 301 301 300 299 298 296 294 292 290 288 286 281 279 275 271 267 265 263 261 258 256 254 253 252 251 251 250 249
299 299 298 298 299 299 300 300 300 298 297 297 296 296 295 294 293 292 290 289 287 284 281 278 275 272 269 266 264 262 259 258 256 254 252 251 251 251
296 296 296 296 296 296 296 296 297 297 296 294 294 293 293 292 292 291 291 290 286 284 282 281 279 276 271 268 267 265 261 259 257 255 254 253 252 252
294 294 294 293 293 293 292 292 292 293 293 292 292 291 291 290 290 290 290 289 287 285 283 282 280 279 275 271 268 266 263 261 260 258 256 254 253 252
292 292 292 291 291 291 290 290 290 290 290 290 290 290 289 289 289 288 288 287 285 285 283 282 281 279 276 273 270 266 264 264 263 261 258 256 254 252
289 290 290 290 290 290 289 289 289 289 288 288 288 288 287 287 287 287 286 286 284 282 282 281 280 279 277 275 272 268 265 263 263 262 260 259 257 255
289 289 289 289 289 289 289 289 288 288 287 287 287 286 286 285 285 285 285 284 283 281 280 279 278 277 275 274 272 270 267 264 262 260 260 259 260 258
Height
5761 5761 5762 5763 5764 5767 5769 5772 5775 5778 5781 5784 5788 5792 5796 5800 5805 5809 5814 5818 5822 5826 5830 5834 5837 5841 5844 5847 5850 5852 5855 5857 5859 5861 5863 5864 5866 5867
5756 5756 5756 5757 5758 5759 5761 5764 5766 5769 5772 5775 5778 5782 5787 5791 5795 5799 5804 5808 5812 5816 5820 5824 5828 5832 5835 5839 5842 5845 5847 5850 5852 5854 5856 5858 5859 5861
5752 5751 5751 5751 5751 5752 5754 5756 5758 5761 5764 5766 5768 5772 5776 5781 5785 5789 5793 5797 5801 5806 5810 5814 5818 5822 5826 5829 5833 5836 5839 5841 5844 5846 5848 5850 5852 5853
5749 5747 5746 5745 5745 5745 5746 5748 5750 5752 5755 5757 5759 5762 5766 5770 5774 5778 5782 5786 5790 5795 5799 5803 5807 5811 5815 5819 5822 5826 5829 5832 5835 5838 5840 5842 5844 5845
5746 5744 5742 5741 5740 5740 5740 5741 5742 5744 5746 5748 5750 5753 5756 5759 5763 5767 5771 5775 5779 5783 5787 5791 5795 5800 5804 5808 5812 5815 5819 5822 5826 5828 5830 5833 5835 5837
5745 5742 5740 5738 5737 5736 5735 5735 5736 5738 5739 5741 5742 5744 5747 5749 5752 5756 5760 5763 5767 5771 5775 5779 5783 5788 5792 5797 5801 5804 5808 5812 5815 5818 5821 5823 5825 5827
5743 5741 5738 5736 5734 5733 5732 5731 5731 5732 5733 5734 5735 5736 5738 5740 5742 5745 5748 5751 5756 5759 5763 5768 5772 5776 5780 5784 5789 5792 5796 5800 5803 5807 5810 5812 5815 5817
5742 5739 5737 5735 5732 5731 5729 5728 5728 5727 5727 5728 5728 5729 5730 5731 5732 5734 5737 5741 5746 5749 5752 5755 5759 5763 5768 5772 5776 5780 5784 5788 5792 5795 5798 5801 5804 5807
5741 5738 5736 5733 5731 5729 5727 5725 5724 5723 5723 5723 5722 5722 5723 5724 5725 5726 5728 5730 5734 5737 5740 5745 5747 5752 5755 5759 5763 5768 5772 5776 5780 5783 5786 5789 5793 5795
5740 5737 5734 5732 5729 5727 5725 5723 5721 5720 5719 5718 5718 5718 5718 5717 5718 5719 5719 5722 5724 5727 5729 5734 5736 5740 5743 5747 5751 5755 5759 5763 5767 5770 5773 5777 5780 5783
5738 5735 5733 5730 5728 5725 5723 5721 5719 5717 5716 5714 5714 5713 5712 5712 5712 5712 5713 5714 5716 5717 5719 5723 5726 5728 5731 5735 5738 5742 5746 5750 5754 5757 5761 5764 5767 5770
5735 5733 5731 5728 5726 5724 5721 5719 5717 5715 5713 5711 5710 5709 5708 5707 5706 5706 5706 5706 5708 5709 5710 5713 5715 5717 5721 5724 5727 5730 5733 5737 5740 5744 5748 5751 5754 5757
5732 5730 5728 5726 5724 5721 5719 5717 5715 5712 5710 5708 5707 5705 5704 5703 5702 5701 5700 5700 5701 5702 5702 5704 5706 5707 5709 5713 5715 5717 5720 5724 5727 5731 5735 5738 5741 5744
5729 5727 5725 5723 5720 5718 5716 5714 5711 5709 5707 5705 5703 5702 5700 5699 5697 5696 5695 5694 5694 5695 5695 5695 5696 5697 5699 5701 5704 5706 5708 5711 5715 5718 5722 5725 5728 5732
5725 5723 5721 5719 5716 5714 5712 5710 5708 5706 5703 5701 5699 5698 5696 5694 5692 5691 5690 5689 5688 5688 5687 5687 5688 5688 5689 5691 5693 5695 5697 5699 5702 5705 5709 5712 5715 5719
5720 5718 5716 5714 5712 5710 5708 5706 5703 5701 5699 5697 5695 5693 5691 5689 5688 5686 5685 5683 5682 5681 5680 5680 5680 5680 5681 5682 5683 5685 5686 5688 5690 5693 5696 5699 5702 5706
5715 5713 5711 5709 5707 5705 5702 5700 5698 5696 5694 5692 5690 5688 5686 5684 5682 5680 5679 5677 5676 5675 5673 5672 5672 5672 5672 5673 5674 5675 5676 5677 5679 5681 5684 5687 5690 5694
5709 5707 5705 5703 5701 5699 5697 5695 5693 5691 5689 5686 5684 5682 5680 5678 5676 5674 5672 5671 5669 5668 5666 5665 5664 5664 5664 5664 5665 5665 5666 5667 5668 5670 5672 5675 5678 5682
5703 5700 5698 5696 5694 5692 5690 5688 5686 5684 5682 5680 5678 5676 5674 5672 5670 5668 5665 5664 5662 5660 5659 5658 5656 5655 5655 5656 5656 5656 5656 5657 5658 5659 5661 5664 5667 5670
5695 5693 5691 5689 5687 5685 5683 5681 5679 5676 5674 5672 5670 5668 5666 5664 5662 5660 5658 5656 5655 5653 5651 5649 5648 5647 5646 5647 5647 5647 5646 5647 5648 5649 5651 5652 5655 5657
5687 5685 5683 5681 5679 5677 5674 5672 5670 5668 5666 5664 5662 5659 5657 5655 5653 5652 5650 5648 5646 5645 5643 5642 5640 5638 5638 5638 5638 5638 5638 5637 5638 5639 5640 5641 5643 5645
5678 5676 5673 5671 5669 5667 5665 5663 5661 5659 5656 5654 5652 5650 5647 5645 5644 5642 5640 5638 5636 5635 5633 5632 5631 5630 5629 5629 5628 5629 5629 5628 5628 5629 5630 5631 5632 5634
5668 5665 5663 5661 5659 5656 5654 5652 5650 5647 5645 5643 5641 5638 5636 5634 5632 5630 5628 5627 5625 5624 5622 5621 5620 5619 5619 5618 5618 5618 5618 5618 5618 5619 5620 5621 5622 5623